User: anonymous   Login
Location: Invercargill
(46.4000°S, 168.3500°E)
Time: 01:13:21
(UTC+12:00)
Language:

S-56A Canister/Altair - Orbit

View from above orbital plane
View from above orbital plane
View from above satellite
View from above satellite

Ground track
Ground track

The orbit data is extracted from the following two-line orbital elements,

1    82U 61004B   19229.12573561 -.00000033  00000-0  24798-4 0  9995
2    82  38.8534 248.9414 1174251  49.9368 319.8522 12.26046011770338
Epoch (UTC): 17 August 2019 03:01:03
Eccentricity: 0.1174251
inclination: 38.8534°
perigee height: 633 km
apogee height: 2499 km
right ascension of ascending node: 248.9414°
argument of perigee: 49.9368°
revolutions per day: 12.26046011
mean anomaly at epoch: 319.8522°
orbit number at epoch: 77033

The dashed part of the orbit path shows where the satellite is in the earth's shadow,  

DLR